DW8847 Weather Reports


time (UTC)temp
C
wind
direction
speed
KPH
gust
KPH
rain 1hr
cm
rain 24hr
cm
rain mn
cm
humidity
%
barometer
mb
20260506051024 13 19 0.0 6.4 0.00 0.84 0.00 91 1010.7
20260506050519 13 19 1.6 6.4 0.00 0.84 0.00 91 1010.6
20260506045019 13 17 1.6 4.8 0.00 0.84 0.00 91 1010.7
20260506044520 13 19 3.2 4.8 0.00 0.84 0.00 91 1010.7
20260506044022 13 16 1.6 4.8 0.00 0.84 0.00 91 1010.7
20260506043517 13 42 0.0 4.8 0.00 0.84 0.00 91 1010.6
20260506043017 13 25 0.0 3.2 0.00 0.84 0.00 91 1010.6
20260506042517 13 22 0.0 3.2 0.00 0.84 0.00 91 1010.7
20260506042017 13 22 0.0 3.2 0.00 0.84 0.00 91 1010.7
20260506041516 13 22 0.0 4.8 0.00 0.84 0.00 91 1010.7
20260506041014 13 22 1.6 4.8 0.00 0.84 0.00 91 1010.6
20260506040519 13 32 1.6 3.2 0.00 0.84 0.00 91 1010.6
20260506040016 13 60 0.0 3.2 0.00 0.84 0.00 91 1010.7
20260506035512 13 60 0.0 3.2 0.00 0.84 0.00 91 1010.9
20260506035012 13 60 0.0 3.2 0.00 0.84 0.00 91 1011.0
20260506034511 13 60 0.0 3.2 0.00 0.84 0.00 91 1011.0
20260506034011 13 60 0.0 3.2 0.00 0.84 0.00 91 1010.9
20260506033510 13 60 0.0 3.2 0.00 0.84 0.00 91 1010.9
20260506033015 13 60 0.0 3.2 0.00 0.84 0.00 91 1011.0
20260506032510 13 60 0.0 3.2 0.00 0.84 0.00 91 1011.0
20260506032010 13 60 0.0 3.2 0.00 0.84 0.00 91 1011.0
20260506031510 13 60 0.0 3.2 0.00 0.84 0.00 91 1011.1
20260506031009 13 60 0.0 3.2 0.00 0.84 0.00 91 1011.1
20260506030507 13 61 0.0 4.8 0.00 0.84 0.00 91 1011.2
20260506030007 13 65 1.6 4.8 0.00 0.84 0.00 91 1011.2
20260506025509 13 38 0.0 4.8 0.00 0.84 0.00 91 1011.2
20260506025007 13 38 0.0 4.8 0.00 0.84 0.00 91 1011.2
20260506024520 13 35 0.0 4.8 0.00 0.84 0.00 91 1011.3
20260506024006 13 24 0.0 3.2 0.00 0.84 0.00 91 1011.3
20260506023506 13 24 0.0 3.2 0.00 0.84 0.00 91 1011.3
20260506023006 13 24 0.0 3.2 0.00 0.84 0.00 91 1011.5
20260506022505 13 24 0.0 3.2 0.00 0.84 0.00 91 1011.5
20260506022008 13 24 0.0 3.2 0.00 0.84 0.00 91 1011.5
20260506021509 13 24 0.0 3.2 0.00 0.84 0.00 91 1011.5
20260506021004 13 24 0.0 3.2 0.00 0.84 0.00 91 1011.5
20260506020503 13 24 0.0 3.2 0.00 0.84 0.00 91 1011.6
20260506020005 13 24 0.0 3.2 0.00 0.84 0.00 91 1011.6
20260506015506 13 24 0.0 3.2 0.00 0.84 0.00 91 1011.7
20260506015004 13 24 0.0 3.2 0.00 0.84 0.00 91 1011.6
20260506014508 13 24 0.0 3.2 0.00 0.84 0.00 91 1011.5
20260506014004 13 24 0.0 3.2 0.00 0.84 0.00 91 1011.7
20260506013503 13 24 0.0 3.2 0.00 0.84 0.00 91 1011.7
20260506013003 13 24 0.0 3.2 0.00 0.84 0.00 91 1011.7
20260506012503 13 24 0.0 3.2 0.00 0.84 0.00 91 1011.6
20260506012003 13 24 0.0 3.2 0.00 0.84 0.00 91 1011.6
20260506011503 13 24 0.0 4.8 0.00 0.84 0.00 91 1011.6
20260506011001 13 24 0.0 4.8 0.00 0.84 0.00 91 1011.5
20260506010504 13 21 0.0 4.8 0.00 0.84 0.00 91 1011.6
20260506010001 13 360 1.6 4.8 0.00 0.84 0.00 91 1011.6
20260506005501 13 360 0.0 4.8 0.00 0.84 0.00 91 1011.5
20260506005002 13 360 1.6 4.8 0.00 0.84 0.00 91 1011.5
20260506004501 13 350 0.0 4.8 0.00 0.84 0.00 91 1011.6
20260506004100 13 288 1.6 3.2 0.00 0.84 0.00 91 1011.6
20260506003600 13 288 0.0 3.2 0.00 0.84 0.00 91 1011.7
20260506003100 13 288 1.6 3.2 0.00 0.84 0.00 91 1011.6
20260506002601 13 288 0.0 3.2 0.00 0.84 0.00 91 1011.6
20260506002100 13 288 0.0 3.2 0.00 0.84 0.00 91 1011.7
20260506001604 13 288 0.0 3.2 0.00 0.84 0.00 91 1011.7
20260506001059 13 288 0.0 3.2 0.00 0.84 0.00 91 1011.7
20260506000600 13 288 0.0 3.2 0.00 0.84 0.00 91 1011.7
20260506000119 13 288 0.0 3.2 0.00 0.84 0.00 91 1011.8
20260505235600 13 288 0.0 0.0 0.00 0.84 0.00 91 1011.9
20260505235056 13 288 0.0 0.0 0.00 0.84 0.00 91 1012.0
20260505234557 13 288 0.0 0.0 0.00 0.84 0.00 91 1012.1
20260505234056 13 288 0.0 0.0 0.00 0.84 0.00 91 1012.1
20260505233555 13 288 0.0 0.0 0.00 0.84 0.00 91 1012.1
20260505233059 13 288 0.0 1.6 0.00 0.84 0.00 91 1012.3
20260505232553 13 288 0.0 3.2 0.00 0.84 0.00 91 1012.2
20260505232055 13 288 0.0 3.2 0.00 0.84 0.00 91 1012.3
20260505231606 13 288 0.0 3.2 0.00 0.84 0.00 91 1012.4
20260505231054 13 288 0.0 0.0 0.00 0.84 0.00 91 1012.3
20260505230552 13 288 0.0 1.6 0.00 0.84 0.00 91 1012.3
20260505230104 13 288 0.0 1.6 0.00 0.84 0.00 91 1012.3
20260505225554 13 288 0.0 3.2 0.00 0.84 0.00 91 1012.3
20260505225052 13 288 0.0 3.2 0.00 0.84 0.00 91 1012.4
20260505224552 13 288 0.0 3.2 0.00 0.84 0.00 91 1012.4
20260505224051 13 288 0.0 3.2 0.00 0.84 0.00 91 1012.4
20260505223553 13 288 0.0 3.2 0.00 0.84 0.00 91 1012.5
20260505223050 13 288 0.0 3.2 0.00 0.84 0.00 91 1012.5
20260505222550 13 279 0.0 3.2 0.00 0.84 0.00 91 1012.6
20260505222050 13 279 0.0 3.2 0.00 0.84 0.00 91 1012.6
20260505221557 13 279 0.0 0.0 0.00 0.84 0.00 91 1012.6
20260505221048 13 279 0.0 3.2 0.00 0.84 0.00 91 1012.5
20260505220549 13 279 0.0 3.2 0.00 0.84 0.00 91 1012.5
20260505220047 13 279 0.0 3.2 0.00 0.84 0.00 91 1012.6
20260505215547 13 279 0.0 3.2 0.00 0.84 0.84 91 1012.6
20260505215046 13 279 0.0 3.2 0.00 0.84 0.84 91 1012.6
20260505214546 13 279 0.0 0.0 0.00 0.84 0.84 91 1012.6
20260505214049 13 279 0.0 0.0 0.03 0.84 0.84 91 1012.7
20260505213547 13 279 0.0 3.2 0.03 0.84 0.84 91 1012.8
20260505213046 13 279 0.0 3.2 0.03 0.84 0.84 91 1012.7
20260505212546 13 279 0.0 3.2 0.03 0.84 0.84 91 1012.8
20260505212046 13 279 0.0 3.2 0.05 0.84 0.84 91 1012.8
20260505211546 13 279 1.6 3.2 0.05 0.84 0.84 91 1012.9
20260505211047 13 275 0.0 0.0 0.05 0.84 0.84 91 1013.0
20260505210545 13 275 0.0 0.0 0.05 0.84 0.84 91 1013.0
20260505210045 13 275 0.0 0.0 0.05 0.84 0.84 91 1013.0
20260505205548 13 275 0.0 1.6 0.08 0.84 0.84 91 1012.9
20260505205044 13 275 0.0 3.2 0.10 0.84 0.84 91 1013.0
20260505204550 13 275 0.0 3.2 0.15 0.84 0.84 91 1013.0
20260505204045 13 275 0.0 3.2 0.13 0.81 0.81 91 1013.0
20260505203545 13 270 0.0 3.2 0.13 0.81 0.81 91 1013.0
20260505203054 13 270 0.0 3.2 0.13 0.81 0.81 91 1013.1
20260505202545 13 42 0.0 3.2 0.13 0.81 0.81 91 1013.2
20260505202045 13 42 0.0 0.0 0.10 0.79 0.79 91 1013.1
20260505201547 13 42 0.0 3.2 0.13 0.79 0.79 91 1013.0
20260505201044 13 42 0.0 3.2 0.13 0.79 0.79 91 1013.0
20260505200544 13 42 0.0 3.2 0.13 0.79 0.79 91 1013.0
20260505200046 13 42 0.0 3.2 0.13 0.79 0.79 91 1013.1
20260505195544 13 42 0.0 3.2 0.08 0.76 0.76 91 1013.0
20260505195045 13 42 0.0 3.2 0.05 0.71 0.71 91 1012.9
20260505194553 13 42 0.0 3.2 0.03 0.71 0.71 91 1012.9
20260505194042 13 42 0.0 3.2 0.05 0.71 0.71 91 1012.9
20260505193541 13 42 0.0 3.2 0.05 0.71 0.71 91 1013.0
20260505193042 13 42 0.0 3.2 0.05 0.71 0.71 91 1013.0
20260505192541 12 42 0.0 3.2 0.05 0.71 0.71 91 1012.9
20260505192041 13 42 1.6 3.2 0.05 0.71 0.71 91 1012.9
20260505191554 13 42 0.0 3.2 0.05 0.69 0.69 91 1012.8
20260505191041 12 42 0.0 3.2 0.05 0.69 0.69 91 1012.9
20260505190542 12 42 0.0 3.2 0.05 0.69 0.69 91 1013.0
20260505190042 12 42 0.0 6.4 0.05 0.69 0.69 91 1012.9
20260505185545 13 42 1.6 6.4 0.05 0.69 0.69 91 1012.9
20260505185040 13 48 0.0 6.4 0.05 0.69 0.69 91 1012.8
20260505184540 13 46 0.0 3.2 0.05 0.69 0.69 91 1012.8
20260505184040 12 46 0.0 3.2 0.03 0.66 0.66 91 1012.8
20260505183539 12 46 0.0 3.2 0.00 0.64 0.64 91 1012.8
20260505183041 12 46 0.0 3.2 0.00 0.64 0.64 91 1012.8
20260505182540 12 46 0.0 0.0 0.00 0.64 0.64 91 1012.7
20260505182042 12 46 0.0 0.0 0.00 0.64 0.64 91 1012.7
20260505181540 12 46 0.0 3.2 0.00 0.64 0.64 91 1012.7
20260505181039 12 46 0.0 3.2 0.03 0.64 0.64 91 1012.7
20260505180538 12 46 0.0 4.8 0.03 0.64 0.64 91 1012.7
20260505180046 12 46 0.0 4.8 0.05 0.64 0.64 91 1012.7
20260505175541 12 28 0.0 3.2 0.05 0.64 0.64 91 1012.8
20260505175039 12 28 1.6 3.2 0.05 0.64 0.64 91 1012.7
20260505174540 12 28 0.0 3.2 0.05 0.64 0.64 91 1012.7
20260505174039 12 28 0.0 4.8 0.05 0.64 0.64 91 1012.7
20260505173538 12 28 0.0 4.8 0.05 0.64 0.64 91 1012.7
20260505173037 12 28 1.6 4.8 0.08 0.64 0.64 90 1012.7
20260505172538 12 53 0.0 4.8 0.10 0.64 0.64 90 1012.8
20260505172037 12 53 0.0 3.2 0.10 0.64 0.64 90 1012.8
20260505171538 12 53 0.0 3.2 0.13 0.64 0.64 91 1012.9
20260505171036 12 67 0.0 3.2 0.10 0.61 0.61 91 1012.8
20260505170535 12 67 0.0 3.2 0.10 0.61 0.61 91 1012.8
20260505170035 12 67 0.0 4.8 0.10 0.61 0.61 90 1012.9
20260505165535 12 68 0.0 4.8 0.10 0.61 0.61 90 1012.9
20260505165035 12 34 1.6 4.8 0.13 0.61 0.61 90 1012.9
20260505164535 13 28 1.6 4.8 0.15 0.61 0.61 90 1012.8
20260505164035 13 28 0.0 3.2 0.15 0.58 0.58 90 1012.9
20260505163535 13 28 0.0 4.8 0.15 0.58 0.58 90 1012.9
20260505163034 13 27 0.0 3.2 0.15 0.56 0.56 90 1013.0
20260505162533 13 27 0.0 3.2 0.13 0.53 0.53 90 1013.0
20260505162033 13 27 0.0 4.8 0.13 0.53 0.53 90 1013.1
20260505161532 13 27 1.6 4.8 0.13 0.51 0.51 90 1013.1
20260505161032 13 28 1.6 4.8 0.13 0.51 0.51 90 1013.2
20260505160533 13 33 0.0 4.8 0.13 0.51 0.51 90 1013.2
20260505153031 13 15 0.0 3.2 0.08 0.43 0.43 89 1013.4
20260505152529 13 15 0.0 3.2 0.10 0.43 0.43 89 1013.4
20260505152029 13 15 0.0 3.2 0.13 0.43 0.43 89 1013.4
20260505151533 13 15 0.0 3.2 0.13 0.41 0.41 89 1013.5
20260505151029 13 15 0.0 3.2 0.15 0.41 0.41 89 1013.4
20260505150529 13 15 0.0 3.2 0.15 0.41 0.41 89 1013.4
20260505140526 13 50 0.0 3.2 0.15 0.23 0.23 87 1013.9
20260505125023 14 186 0.0 3.2 0.05 0.08 0.08 82 1014.0
20260505124537 14 186 0.0 3.2 0.05 0.08 0.08 82 1014.0
20260505124022 15 169 0.0 3.2 0.03 0.05 0.05 81 1013.9
20260505123523 15 169 0.0 3.2 0.03 0.05 0.05 82 1014.1
20260505123022 15 169 0.0 3.2 0.00 0.05 0.05 80 1014.1
20260505122522 15 169 0.0 3.2 0.00 0.05 0.05 80 1014.0
20260505122022 15 169 0.0 3.2 0.00 0.05 0.05 80 1014.0
20260505121532 15 169 0.0 3.2 0.03 0.05 0.05 78 1014.1
20260505121023 15 157 0.0 3.2 0.03 0.05 0.05 78 1014.1
20260505120522 15 157 0.0 3.2 0.03 0.05 0.05 78 1014.2
20260505120023 15 157 0.0 3.2 0.03 0.05 0.05 78 1014.2
20260505115521 15 157 0.0 4.8 0.03 0.05 0.05 77 1014.3
20260505115021 15 202 0.0 4.8 0.05 0.05 0.05 77 1014.3
20260505114521 15 209 0.0 0.0 0.05 0.05 0.05 79 1014.2
20260505114021 15 209 0.0 0.0 0.05 0.05 0.05 80 1014.2
20260505113520 15 209 0.0 0.0 0.05 0.05 0.05 79 1014.2
20260505113020 15 209 0.0 0.0 0.05 0.05 0.05 79 1014.2
20260505112520 15 209 0.0 0.0 0.05 0.05 0.05 80 1014.2
20260505112020 16 209 0.0 3.2 0.05 0.05 0.05 80 1014.2
20260505111529 16 209 0.0 4.8 0.03 0.03 0.03 77 1014.2
20260505111020 16 207 0.0 3.2 0.03 0.03 0.03 78 1014.2
20260505110519 16 202 0.0 3.2 0.03 0.03 0.03 77 1014.2
20260505102019 17 198 0.0 3.2 0.00 0.00 0.00 72 1014.3
20260505101518 17 198 0.0 3.2 0.00 0.00 0.00 72 1014.2
20260505101018 17 198 0.0 6.4 0.00 0.00 0.00 71 1014.2
20260505100517 17 190 0.0 4.8 0.00 0.00 0.00 71 1014.1
20260505100028 17 194 0.0 4.8 0.00 0.00 0.00 73 1014.2
20260505095517 17 199 1.6 4.8 0.00 0.00 0.00 73 1014.2
20260505095016 17 202 0.0 4.8 0.00 0.00 0.00 74 1014.2
20260505094516 17 203 0.0 4.8 0.00 0.00 0.00 76 1014.2
20260505094015 17 139 0.0 3.2 0.00 0.00 0.00 76 1014.2
20260505093515 17 91 0.0 3.2 0.00 0.00 0.00 77 1014.2
20260505093024 17 86 0.0 3.2 0.00 0.00 0.00 77 1014.3
20260505092515 17 113 0.0 3.2 0.00 0.00 0.00 78 1014.3
20260505092015 17 98 0.0 4.8 0.00 0.00 0.00 78 1014.3
20260505091517 17 120 0.0 4.8 0.00 0.00 0.00 78 1014.4
20260505091016 16 22 0.0 4.8 0.00 0.00 0.00 78 1014.4
20260505090514 16 44 0.0 4.8 0.00 0.00 0.00 78 1014.4
20260505090014 16 111 0.0 4.8 0.00 0.00 0.00 78 1014.4
20260505085514 16 69 0.0 6.4 0.00 0.00 0.00 78 1014.4
20260505085017 16 89 0.0 6.4 0.00 0.00 0.00 78 1014.3
20260505084515 16 30 1.6 4.8 0.00 0.00 0.00 78 1014.4
20260505084013 16 82 0.0 6.4 0.00 0.00 0.00 78 1014.3
20260505083519 16 62 1.6 6.4 0.00 0.00 0.00 77 1014.3
20260505083015 16 71 3.2 8.0 0.00 0.00 0.00 77 1014.2
20260505082512 16 55 3.2 8.0 0.00 0.00 0.00 77 1014.2
20260505082012 16 65 1.6 6.4 0.00 0.00 0.00 77 1014.1
20260505081516 16 56 1.6 6.4 0.00 0.00 0.00 77 1014.0
20260505081012 16 55 1.6 8.0 0.00 0.00 0.00 76 1014.0
20260505080512 16 78 1.6 8.0 0.00 0.00 0.00 75 1014.0
20260505080012 16 67 0.0 4.8 0.00 0.00 0.00 75 1014.0
20260505075511 16 64 0.0 8.0 0.00 0.00 0.00 75 1014.0
20260505075011 16 33 3.2 8.0 0.00 0.00 0.00 74 1014.0
20260505074512 16 53 1.6 8.0 0.00 0.00 0.00 73 1013.9
20260505074011 16 57 1.6 8.0 0.00 0.00 0.00 73 1014.0
20260505073511 16 73 3.2 8.0 0.00 0.00 0.00 73 1014.0
20260505073012 17 38 3.2 14.5 0.00 0.00 0.00 73 1014.0
20260505072512 17 42 6.4 14.5 0.00 0.00 0.00 71 1014.0
20260505072009 16 28 3.2 9.7 0.00 0.00 0.00 71 1014.0
20260505071509 16 48 4.8 9.7 0.00 0.00 0.00 71 1014.1
20260505071008 15 17 3.2 8.0 0.00 0.00 0.00 73 1014.0
20260505070509 15 29 1.6 8.0 0.00 0.00 0.00 74 1014.0
20260505070004 15 34 1.6 8.0 0.00 0.00 0.00 73 1014.1
20260505065504 15 29 3.2 6.4 0.00 0.00 0.00 74 1014.0
20260505065005 15 36 1.6 6.4 0.00 0.00 0.00 74 1014.0
20260505064502 15 32 1.6 6.4 0.00 0.00 0.00 74 1014.0
20260505064003 15 46 1.6 4.8 0.00 0.00 0.00 74 1013.9
20260505063502 15 42 1.6 6.4 0.00 0.00 0.00 74 1013.9
20260505063003 15 42 1.6 6.4 0.00 0.00 0.00 74 1013.9
20260505062502 15 46 3.2 6.4 0.00 0.00 0.00 74 1013.8
20260505062002 15 28 1.6 6.4 0.00 0.00 0.00 74 1013.8
20260505061601 14 42 1.6 8.0 0.00 0.00 0.00 75 1013.9
20260505061059 14 35 3.2 8.0 0.00 0.00 0.00 75 1013.8
20260505060604 14 38 1.6 4.8 0.00 0.00 0.00 75 1013.7
20260505060100 14 50 1.6 4.8 0.00 0.00 0.00 76 1013.6